Date,TemperatureHighF,TemperatureAvgF,TemperatureLowF,DewpointHighF,DewpointAvgF,DewpointLowF,HumidityHigh,HumidityAvg,HumidityLow,PressureMaxIn,PressureMinIn,WindSpeedMaxMPH,WindSpeedAvgMPH,GustSpeedMaxMPH,PrecipitationSumIn
2013-1-1,68,60,50,68,57,45,100,91,73,30.15,29.82,22,13,29,0.08
2013-1-2,50,43,41,45,40,35,100,90,66,30.27,30.12,19,13,25,0.28
2013-1-3,48,45,42,38,34,27,86,67,45,30.36,30.27,16,12,21,0.00
2013-1-4,49,47,45,42,36,33,88,66,56,30.39,30.30,18,13,25,0.00
2013-1-5,48,46,44,48,43,35,100,89,65,30.33,30.21,18,12,24,0.00
2013-1-6,61,51,44,49,44,39,100,81,47,30.33,30.24,12,8,18,0.00
2013-1-7,60,53,46,58,51,41,100,92,78,30.27,29.97,14,9,22,0.04
2013-1-8,68,64,58,68,64,58,100,100,99,29.97,29.76,17,9,27,0.04
2013-1-9,69,64,62,69,64,62,100,100,99,30.00,29.74,21,8,31,2.53
2013-1-10,66,61,56,62,56,46,100,83,49,30.09,30.00,14,6,17,0.00
2013-1-11,74,67,58,73,66,58,100,99,93,30.03,29.79,9,6,17,0.00
2013-1-12,74,72,69,73,71,69,100,98,96,29.82,29.62,15,10,30,0.00
2013-1-13,72,58,51,72,48,35,100,73,45,30.06,29.68,25,14,33,0.08
2013-1-14,53,48,45,48,42,36,96,82,55,30.15,30.03,18,12,24,0.00
2013-1-15,49,46,43,49,45,40,100,97,89,30.18,30.00,18,13,26,0.12
2013-1-16,59,48,40,40,28,21,89,49,28,30.36,30.18,20,13,27,0.00
2013-1-17,66,53,42,48,37,29,89,58,29,30.41,30.27,10,5,15,0.00
2013-1-18,66,55,46,56,50,46,100,84,50,30.47,30.30,12,6,17,0.00
2013-1-19,70,61,53,60,54,47,100,80,47,30.30,30.15,10,6,15,0.00
2013-1-20,71,62,54,65,57,53,100,85,55,30.24,30.09,8,5,13,0.00
2013-1-21,70,62,57,66,59,56,100,89,68,30.21,30.09,9,6,13,0.00
2013-1-22,71,62,56,66,60,56,100,92,70,30.27,30.15,9,5,15,0.00
2013-1-23,75,66,60,71,64,60,100,94,75,30.30,30.21,9,6,15,0.00
2013-1-24,74,67,62,71,66,62,100,95,81,30.27,30.12,11,7,19,0.00
2013-1-25,74,68,63,71,66,63,100,95,78,30.15,30.03,11,8,18,0.00
2013-1-26,76,70,66,72,67,65,100,92,74,30.12,30.03,10,8,18,0.00
2013-1-27,74,70,67,72,70,66,100,98,93,30.06,29.94,12,8,20,0.00
2013-1-28,77,72,70,75,72,69,100,97,87,30.06,29.88,12,9,21,0.00
2013-1-29,77,73,70,76,71,46,100,95,38,29.91,29.56,22,14,35,0.00
2013-1-30,73,64,56,46,31,23,38,28,25,30.24,29.71,30,17,40,0.00
2013-1-31,68,60,53,49,33,23,67,37,25,30.30,30.21,9,6,14,0.00
2013-2-1,70,63,56,61,52,44,99,71,40,30.33,30.18,8,4,15,0.00
2013-2-2,74,65,60,65,60,56,100,85,57,30.21,30.12,9,5,15,0.00
2013-2-3,71,64,59,65,62,56,100,92,61,30.27,30.00,11,6,17,0.00
2013-2-4,74,68,63,70,66,62,100,94,84,30.00,29.76,12,7,19,0.00
2013-2-5,76,69,64,72,68,64,100,97,86,29.94,29.82,10,6,17,0.00
2013-2-6,71,68,65,70,68,65,100,100,99,29.97,29.79,21,9,30,1.74
2013-2-7,76,70,66,74,69,66,100,97,90,29.97,29.85,9,6,13,0.00
2013-2-8,74,66,61,68,58,49,100,76,42,30.15,29.97,17,9,22,0.00
2013-2-9,74,70,65,72,69,63,100,96,93,30.06,29.76,12,9,20,0.00
2013-2-10,82,73,68,77,66,49,100,82,46,29.88,29.71,16,9,24,0.00
2013-2-11,69,66,62,65,61,52,100,86,61,29.94,29.85,17,12,27,0.00
2013-2-12,72,66,63,66,64,60,100,93,70,29.97,29.79,16,8,22,0.04
2013-2-13,66,60,54,65,44,34,98,59,35,30.15,29.94,20,10,27,0.00
2013-2-14,68,61,54,49,42,35,76,51,33,30.12,30.03,10,6,16,0.00
2013-2-15,71,64,57,60,48,37,94,59,35,30.27,30.03,19,8,28,0.00
2013-2-16,63,55,48,39,29,22,53,37,27,30.44,30.24,20,10,28,0.00
2013-2-17,69,62,57,57,44,34,77,52,39,30.24,30.00,13,9,21,0.00
2013-2-18,71,67,64,65,62,57,99,87,75,30.00,29.82,14,10,23,0.00
2013-2-19,67,63,60,65,49,40,100,63,45,30.18,29.97,21,12,30,0.00
2013-2-20,69,66,63,68,64,56,100,93,79,30.00,29.65,14,10,25,0.00
2013-2-21,77,70,67,72,64,46,100,82,42,29.79,29.59,15,10,29,0.00
2013-2-22,69,66,60,60,46,35,83,52,30,29.88,29.76,17,11,27,0.00
2013-2-23,69,59,52,56,45,40,95,62,37,30.00,29.85,18,9,24,0.00
2013-2-24,67,62,56,66,62,55,100,98,94,29.88,29.59,12,6,20,0.00
2013-2-25,69,65,54,68,43,22,100,55,22,29.85,29.50,38,19,50,0.00
2013-2-26,67,55,46,47,29,21,66,38,26,30.00,29.85,17,10,24,0.00
2013-2-27,72,61,54,59,44,27,96,58,25,30.15,29.85,15,8,22,0.00
2013-2-28,57,52,47,32,24,20,48,34,28,30.27,30.15,21,12,28,0.00
2013-3-1,63,55,45,47,31,26,73,42,27,30.27,30.12,10,6,17,0.00
2013-3-2,61,53,46,47,29,22,80,42,27,30.39,30.21,20,11,25,0.00
2013-3-3,65,57,48,50,38,25,70,50,34,30.27,30.00,14,8,25,0.00
2013-3-4,69,63,59,62,56,49,98,77,55,30.00,29.74,19,14,31,0.00
2013-3-5,66,61,54,62,41,22,100,56,26,30.27,29.79,26,15,34,0.00
2013-3-6,59,53,44,46,29,18,71,41,29,30.39,30.21,15,9,23,0.00
2013-3-7,68,62,55,60,54,45,92,74,58,30.21,30.09,13,8,20,0.00
2013-3-8,70,65,62,67,62,60,99,93,80,30.09,30.00,14,9,22,0.00
2013-3-9,71,67,64,67,64,64,97,93,82,30.00,29.65,14,10,24,0.00
2013-3-10,73,66,58,67,51,33,97,64,27,30.03,29.56,24,13,33,0.00
2013-3-11,68,59,50,34,30,26,49,33,25,30.15,29.97,20,11,28,0.00
2013-3-12,68,61,53,47,38,31,74,45,31,30.21,30.03,10,6,17,0.00
2013-3-13,67,61,54,61,51,43,100,70,46,30.39,30.21,14,8,20,0.00
2013-3-14,71,64,58,61,55,51,98,74,49,30.36,30.24,9,6,14,0.00
2013-3-15,71,65,60,62,60,57,98,84,64,30.24,30.03,12,8,21,0.00
2013-3-16,73,67,63,66,63,61,97,89,71,30.03,29.79,14,10,23,0.00
2013-3-17,75,69,65,68,66,63,96,91,79,29.82,29.65,12,9,21,0.00
2013-3-18,78,71,67,68,67,65,95,87,70,29.85,29.68,12,6,18,0.00
2013-3-19,79,71,66,73,67,61,94,88,74,29.94,29.79,13,8,21,0.00
2013-3-20,75,69,64,67,57,47,93,68,46,30.12,29.85,21,13,35,0.00
2013-3-21,75,68,64,67,63,56,95,84,69,30.03,29.65,10,8,20,0.00
2013-3-22,77,71,68,73,69,67,96,92,86,29.71,29.59,11,8,22,0.00
2013-3-23,80,72,69,73,69,66,94,89,69,29.68,29.56,12,6,18,0.00
2013-3-24,69,64,56,68,43,24,96,54,24,30.09,29.62,28,15,36,0.00
2013-3-25,62,56,49,28,25,22,41,31,27,30.30,30.09,16,11,25,0.00
2013-3-26,64,57,50,31,26,22,40,30,27,30.41,30.30,15,10,28,0.00
2013-3-27,66,61,56,54,37,26,76,43,31,30.33,30.18,11,9,20,0.00
2013-3-28,70,65,62,62,59,55,93,83,68,30.21,30.12,11,7,18,0.00
2013-3-29,75,68,63,66,62,60,95,83,61,30.15,30.03,12,8,20,0.00
2013-3-30,76,69,64,68,66,63,97,89,75,30.09,29.91,11,8,18,0.00
2013-3-31,78,71,67,71,68,66,98,92,77,29.94,29.76,17,9,25,0.00
2013-4-1,76,71,67,74,69,67,99,93,79,30.00,29.85,18,8,39,0.00
2013-4-2,79,73,69,77,71,69,99,94,82,29.97,29.74,13,8,20,0.04
2013-4-3,75,68,60,72,64,56,99,85,58,30.09,29.76,20,12,28,0.08
2013-4-4,73,62,56,56,48,40,98,66,30,30.15,30.03,16,12,22,0.00
2013-4-5,67,60,51,57,49,44,86,68,50,30.24,30.06,12,7,19,0.00
2013-4-6,76,69,63,66,61,57,92,77,57,30.09,29.88,14,9,22,0.00
2013-4-7,78,71,67,69,67,65,98,86,67,29.91,29.79,12,9,20,0.00
2013-4-8,78,73,69,74,71,69,100,94,83,29.79,29.65,16,10,24,0.00
2013-4-9,82,75,71,76,73,71,99,94,78,29.71,29.59,16,11,24,0.00
2013-4-10,80,71,60,78,69,53,99,94,68,29.79,29.59,23,13,30,0.00
2013-4-11,72,60,50,54,46,38,94,63,32,29.94,29.76,24,13,34,0.95
2013-4-12,75,67,60,64,59,48,88,75,57,29.94,29.85,14,8,22,0.00
2013-4-13,77,71,66,69,65,60,100,82,58,29.91,29.71,14,8,22,0.00
2013-4-14,81,73,68,76,71,66,100,92,77,29.76,29.65,12,6,21,0.00
2013-4-15,83,76,71,75,73,71,100,91,74,29.79,29.68,16,10,29,0.00
2013-4-16,81,76,74,77,75,72,99,95,85,29.85,29.74,16,9,27,0.00
2013-4-17,82,77,75,78,76,74,99,95,87,29.85,29.65,15,10,26,0.00
2013-4-18,82,72,62,80,67,46,99,86,56,30.00,29.62,30,14,38,0.00
2013-4-19,68,61,56,47,36,27,57,40,28,30.27,30.00,25,13,33,0.00
2013-4-20,75,66,56,48,39,32,56,39,27,30.21,30.00,12,8,20,0.00
2013-4-21,79,70,66,65,57,48,93,64,47,30.09,29.97,14,8,22,0.00
2013-4-22,80,72,66,69,67,65,99,86,63,30.06,29.88,12,8,20,0.00
2013-4-23,80,74,69,74,71,69,100,92,77,29.91,29.79,12,9,20,0.00
2013-4-24,73,58,51,73,55,48,100,89,70,30.15,29.91,26,15,32,0.04
2013-4-25,68,64,62,68,59,48,100,84,58,30.24,30.12,14,11,24,0.04
2013-4-26,81,74,68,77,72,68,100,94,79,30.15,30.00,12,8,20,0.00
2013-4-27,84,77,72,79,74,72,99,91,75,30.06,29.88,14,8,22,0.00
2013-4-28,80,74,68,77,72,68,100,96,88,30.00,29.82,17,9,26,0.63
2013-4-29,85,77,71,81,75,71,100,94,73,29.91,29.76,15,6,22,1.10
2013-4-30,85,78,71,77,74,70,99,89,72,29.79,29.71,12,7,20,0.04
2013-5-1,87,80,74,81,76,74,99,89,72,29.85,29.71,12,7,19,0.00
2013-5-2,84,72,57,76,63,43,99,75,44,30.24,29.76,29,15,38,0.00
2013-5-3,72,62,53,45,33,26,65,35,25,30.27,30.06,27,16,38,0.00
2013-5-4,76,67,59,44,37,32,47,33,26,30.09,29.88,13,8,21,0.00
2013-5-5,78,69,62,61,50,43,91,53,28,30.06,29.91,13,8,20,0.00
2013-5-6,80,69,63,59,54,46,81,60,41,30.09,29.94,10,6,16,0.00
2013-5-7,80,73,65,66,59,56,86,63,46,30.06,29.94,12,8,22,0.00
2013-5-8,80,74,69,71,68,64,97,83,61,30.00,29.91,12,9,21,0.00
2013-5-9,79,75,72,76,74,71,99,96,90,29.94,29.76,11,8,20,0.00
2013-5-10,77,75,70,76,74,69,99,98,95,29.91,29.79,10,0,17,0.04
2013-5-11,86,77,71,74,70,63,100,80,53,30.03,29.91,0,0,4,0.28
2013-5-12,77,74,69,76,65,55,100,77,51,30.15,30.00,0,0,4,0.59
2013-5-13,83,75,68,70,65,60,95,72,53,30.24,30.12,0,0,4,0.00
2013-5-14,85,77,72,76,71,65,92,83,68,30.21,30.03,0,0,0,0.00
2013-5-15,81,77,74,78,75,72,100,94,85,30.09,29.88,0,0,3,0.16
2013-5-16,85,79,75,78,76,74,97,90,78,29.88,29.74,0,0,0,0.00
2013-5-17,86,81,77,81,78,76,98,91,77,29.88,29.76,0,0,6,0.00
2013-5-18,89,82,79,81,79,77,98,91,72,29.91,29.82,0,0,9,0.00
2013-5-19,87,82,79,81,79,78,97,91,80,29.85,29.74,0,0,5,0.00
2013-5-20,88,83,79,83,80,78,98,92,81,29.82,29.71,0,0,9,0.00
2013-5-21,90,84,80,84,81,80,98,90,76,29.79,29.68,0,0,4,0.00
2013-5-22,90,85,81,84,81,80,98,90,74,29.85,29.74,0,0,9,0.00
2013-5-23,90,85,81,85,82,80,97,91,79,29.97,29.82,1,0,22,0.00
2013-5-24,90,85,82,83,82,81,97,89,76,30.06,29.94,0,0,0,0.00
2013-5-25,89,84,82,84,82,80,96,91,83,30.06,29.97,0,0,0,0.00
2013-5-26,90,84,81,81,78,75,93,82,65,30.06,29.94,0,0,0,0.00
2013-5-27,90,84,81,82,79,78,97,86,72,30.00,29.85,0,0,0,0.00
2013-5-28,90,84,81,83,80,79,96,87,75,29.88,29.76,0,0,0,0.00
2013-5-29,86,83,81,82,81,79,97,92,86,29.82,29.71,0,0,0,0.00
2013-5-30,91,85,82,84,82,80,96,90,77,29.82,29.74,0,0,0,0.00
2013-5-31,92,86,82,85,82,81,97,89,75,29.85,29.76,0,0,0,0.00
2013-6-1,92,86,83,84,82,81,97,88,74,29.85,29.76,0,0,0,0.00
2013-6-2,93,84,77,87,80,72,100,88,61,30.00,29.82,0,0,0,0.16
2013-6-3,89,83,77,79,76,72,97,80,59,29.91,29.79,0,0,0,0.00
2013-6-4,92,83,77,77,73,70,93,74,52,29.85,29.79,0,0,0,0.00
2013-6-5,93,84,78,80,77,74,96,79,59,29.82,29.76,0,0,0,0.00
2013-6-6,93,84,79,82,78,76,96,83,62,29.82,29.71,0,0,0,0.00
2013-6-7,88,81,73,80,76,73,100,87,63,29.91,29.82,0,0,0,0.04
2013-6-8,73,73,73,73,73,73,100,100,100,29.91,29.91,0,0,0,0.00
2013-6-9,73,73,73,73,73,73,100,100,100,29.91,29.91,0,0,0,0.00
2013-6-10,73,73,73,73,73,73,100,100,100,29.91,29.91,0,0,0,0.00
2013-6-11,73,73,73,73,73,73,100,100,100,29.91,29.91,0,0,0,0.00
2013-6-12,90,78,73,81,75,73,100,92,68,30.00,29.91,0,0,0,0.75
2013-6-13,92,85,83,82,80,76,92,84,62,30.00,29.88,0,0,0,0.00
2013-6-14,91,86,83,84,80,79,90,84,74,29.94,29.85,0,0,0,0.00
2013-6-15,93,87,82,81,78,74,91,76,57,29.94,29.85,0,0,0,0.00
2013-6-16,94,86,82,81,79,77,90,80,64,29.97,29.88,0,0,0,0.00
2013-6-17,92,86,82,82,80,77,95,83,68,29.94,29.85,0,0,0,0.00
2013-6-18,93,85,81,80,78,76,93,80,60,29.94,29.85,0,0,0,0.00
2013-6-19,93,85,80,82,79,76,97,82,62,29.97,29.88,0,0,0,0.00
2013-6-20,94,86,80,82,80,78,97,84,63,30.03,29.91,0,0,0,0.00
2013-6-21,93,85,80,82,80,78,97,84,65,30.06,29.97,0,0,0,0.00
2013-6-22,93,86,80,81,80,78,98,84,63,30.00,29.91,0,0,0,0.00
2013-6-23,93,85,80,80,79,77,98,82,60,29.97,29.88,0,0,0,0.00
2013-6-24,92,86,80,82,80,78,97,84,68,30.00,29.91,0,0,0,0.00
2013-6-25,92,85,80,83,80,78,98,86,69,29.97,29.88,0,0,0,0.00
2013-6-26,93,86,80,85,81,80,99,88,73,29.94,29.88,0,0,0,0.00
2013-6-27,94,85,79,84,80,79,99,86,64,29.97,29.88,0,0,0,0.00
2013-6-28,93,85,80,82,80,78,99,86,65,29.97,29.79,0,0,0,0.00
2013-6-29,93,85,79,84,80,78,98,86,67,29.85,29.71,0,0,0,0.00
2013-6-30,86,81,74,80,76,70,100,85,64,29.88,29.74,0,0,4,0.91
2013-7-1,93,84,78,79,69,53,96,66,28,29.94,29.79,0,0,0,0.00
2013-7-2,91,82,77,78,68,53,95,66,29,30.00,29.91,0,0,0,0.00
2013-7-3,87,81,76,76,74,66,96,80,51,29.97,29.88,0,0,0,0.00
2013-7-4,91,82,75,79,75,69,100,80,54,29.94,29.85,0,0,0,0.00
2013-7-5,93,84,77,79,76,72,97,78,55,29.91,29.82,0,0,0,0.00
2013-7-6,93,84,79,82,78,76,98,85,61,29.88,29.79,0,0,0,0.00
2013-7-7,94,83,78,83,78,76,99,86,63,29.94,29.82,0,0,0,0.00
2013-7-8,92,85,82,84,80,78,97,87,73,30.06,29.94,0,0,0,0.00
2013-7-9,95,87,81,85,81,78,97,83,66,30.09,30.00,0,0,0,0.00
2013-7-10,94,86,80,84,80,76,99,82,60,30.06,29.91,0,0,0,0.00
2013-7-11,93,86,81,81,78,76,94,80,61,29.97,29.88,0,0,0,0.00
2013-7-12,93,85,80,81,77,72,91,79,58,29.91,29.85,0,0,0,0.00
2013-7-13,93,84,79,80,76,71,96,78,53,29.94,29.82,0,0,0,0.00
2013-7-14,90,84,79,80,77,75,94,80,63,29.91,29.79,0,0,0,0.00
2013-7-15,90,84,82,80,78,75,88,81,69,29.94,29.82,0,0,0,0.00
2013-7-16,91,83,79,79,77,71,96,82,57,30.00,29.91,0,0,0,0.00
2013-7-17,82,78,75,79,77,74,100,96,86,30.09,30.00,0,0,0,0.91
2013-7-18,90,82,74,81,77,74,100,85,60,30.09,29.94,0,0,0,0.24
2013-7-19,94,86,80,81,77,73,93,76,56,30.00,29.88,0,0,0,0.00
2013-7-20,93,85,81,79,76,74,87,76,56,29.94,29.82,0,0,0,0.00
2013-7-21,93,87,83,82,79,75,91,79,57,29.94,29.85,0,0,0,0.00
2013-7-22,93,86,84,81,80,76,90,81,58,29.97,29.88,0,0,0,0.00
2013-7-23,93,86,83,81,77,73,88,75,54,30.00,29.88,0,0,0,0.00
2013-7-24,93,86,82,79,77,73,88,75,55,29.94,29.85,0,0,0,0.00
2013-7-25,94,86,80,82,79,76,93,80,62,30.00,29.94,0,0,0,0.00
2013-7-26,93,86,82,80,79,78,90,80,62,30.00,29.88,0,0,0,0.00
2013-7-27,90,85,82,82,80,78,96,86,69,29.94,29.79,0,0,0,0.00
2013-7-28,93,86,82,82,80,78,97,85,65,29.91,29.82,0,0,0,0.00
2013-7-29,93,86,81,82,80,78,96,84,64,30.03,29.91,0,0,0,0.00
2013-7-30,92,86,81,83,81,80,98,87,69,30.06,29.97,0,0,0,0.00
2013-7-31,94,86,79,84,81,79,99,86,65,30.06,29.94,0,0,0,0.00
2013-8-1,93,85,80,82,80,76,99,85,60,30.00,29.88,0,0,0,0.00
2013-8-2,93,86,81,82,80,77,98,84,62,29.97,29.88,0,0,0,0.00
2013-8-3,94,87,82,84,81,78,99,83,64,30.00,29.91,0,0,0,0.00
2013-8-4,95,88,82,84,81,78,98,83,64,30.03,29.94,0,0,0,0.00
2013-8-5,93,87,82,84,81,78,97,84,65,30.00,29.88,0,0,0,0.00
2013-8-6,93,87,82,84,81,79,97,85,68,30.80,29.82,0,0,7,0.00
2013-8-7,93,86,82,83,81,80,98,85,68,29.91,29.79,0,0,8,0.00
2013-8-8,93,86,80,84,81,79,99,87,69,29.88,29.79,0,0,0,0.00
2013-8-9,95,86,80,83,80,74,99,84,54,29.91,29.85,0,0,3,0.00
2013-8-10,95,87,82,85,82,72,98,85,50,29.97,29.91,0,0,8,0.00
2013-8-11,95,86,81,83,80,74,98,82,54,30.00,29.94,0,0,0,0.00
2013-8-12,95,87,81,82,80,77,97,82,57,30.06,29.94,0,0,0,0.00
2013-8-13,94,87,82,83,81,79,97,83,63,30.00,29.88,0,0,0,0.00
2013-8-14,94,86,82,82,80,71,96,81,48,29.97,29.85,0,0,0,0.00
2013-8-15,92,85,80,85,80,77,98,85,62,29.97,29.88,0,0,7,0.00
2013-8-16,94,86,78,82,80,74,96,82,56,29.97,29.85,0,0,0,0.00
2013-8-17,92,84,78,78,75,68,97,75,50,29.97,29.88,0,0,4,0.00
2013-8-18,92,84,78,79,72,62,97,68,42,30.00,29.91,0,0,0,0.00
2013-8-19,92,84,79,76,73,69,89,70,49,30.00,29.88,0,0,0,0.00
2013-8-20,83,79,72,79,75,72,100,90,78,30.86,29.88,0,0,0,2.01
2013-8-21,91,84,75,82,75,69,98,76,51,30.00,29.94,0,0,0,0.08
2013-8-22,89,83,77,75,73,68,88,71,51,30.00,29.88,0,0,0,0.00
2013-8-23,92,85,79,76,72,66,86,67,44,29.97,29.85,0,0,0,0.00
2013-8-24,89,84,79,76,73,68,86,71,50,29.97,29.88,0,0,0,0.00
2013-8-25,89,83,78,76,73,68,90,72,50,30.00,29.94,0,0,0,0.00
2013-8-26,81,77,73,76,73,70,94,88,77,30.92,29.94,0,0,6,3.31
2013-8-27,90,85,79,77,72,66,86,68,46,30.06,29.97,0,0,0,0.00
2013-8-28,89,82,78,74,71,66,83,69,49,30.00,29.94,0,0,0,0.00
2013-8-29,91,84,79,75,70,62,85,64,40,30.03,29.94,0,0,0,0.00
2013-8-30,89,83,79,75,69,62,85,65,43,30.00,29.88,0,0,0,0.00
2013-8-31,89,83,78,74,68,62,85,63,42,29.91,29.82,0,0,0,0.00
2013-9-1,90,84,80,76,70,64,81,63,44,29.88,29.79,0,0,0,0.00
2013-9-2,91,85,81,74,70,65,78,63,46,29.94,29.82,0,0,0,0.00
2013-9-3,90,83,78,76,70,61,87,65,42,29.97,29.85,0,0,0,0.00
2013-9-4,90,83,78,75,70,65,88,66,47,30.00,29.91,0,0,0,0.00
2013-9-5,90,84,80,74,70,64,82,64,45,30.03,29.94,0,0,0,0.00
2013-9-6,87,82,77,77,71,67,87,72,52,30.03,29.91,0,0,0,0.24
2013-9-7,88,80,74,76,72,68,93,76,58,29.97,29.88,0,0,7,1.93
2013-9-8,84,79,72,77,71,68,93,78,63,30.86,29.85,0,0,3,0.91
2013-9-9,87,81,76,76,71,66,89,73,53,29.91,29.82,0,0,0,0.16
2013-9-10,90,83,80,74,71,67,79,67,50,29.97,29.88,0,0,0,0.00
2013-9-11,88,83,76,78,72,66,91,69,48,30.00,29.94,0,0,0,0.20
2013-9-12,88,83,79,75,70,64,84,67,47,29.97,29.85,0,0,0,0.00
2013-9-13,88,82,77,75,71,64,91,69,47,29.88,29.76,0,0,0,0.00
2013-9-14,89,83,77,75,71,65,89,68,47,29.85,29.76,0,0,4,0.08
2013-9-15,88,82,78,77,73,68,87,73,53,30.65,29.79,0,0,10,0.28
2013-9-16,87,81,76,76,75,71,91,82,67,30.21,29.85,2,0,10,0.28
2013-9-17,89,84,81,77,75,71,85,75,58,29.97,29.88,0,0,6,0.00
2013-9-18,88,83,78,78,75,71,90,78,63,29.94,29.82,12,5,21,0.08
2013-9-19,90,84,81,77,75,73,83,74,59,29.88,29.76,12,8,21,0.00
2013-9-20,89,83,80,80,77,75,90,82,67,29.79,29.68,14,9,23,0.00
2013-9-21,80,76,73,76,69,61,94,80,58,29.76,29.68,25,15,33,0.36
2013-9-22,84,78,72,68,56,38,81,53,20,29.79,29.71,16,10,21,0.00
2013-9-23,82,77,71,72,66,62,83,70,53,29.76,29.68,14,8,20,0.00
2013-9-24,92,81,73,75,68,49,88,68,23,29.85,29.76,12,6,16,0.00
2013-9-25,90,82,76,76,68,59,89,66,35,29.85,29.76,10,6,12,0.00
2013-9-26,89,82,78,74,70,65,83,68,46,29.85,29.76,11,5,20,0.00
2013-9-27,89,84,80,77,75,71,84,75,60,29.88,29.79,12,9,22,0.00
2013-9-28,90,84,81,78,74,71,85,73,55,29.91,29.82,13,9,22,0.00
2013-9-29,88,81,76,75,73,68,92,77,52,29.97,29.85,14,8,20,0.24
2013-9-30,87,80,74,76,74,71,92,81,63,29.88,29.76,9,3,14,0.00
2013-10-1,89,83,78,79,74,70,89,75,61,29.88,29.79,0,0,0,0.04
2013-10-2,89,84,79,76,72,70,82,69,55,29.91,29.82,0,0,0,0.00
2013-10-3,88,83,77,75,70,64,86,66,46,29.91,29.82,0,0,0,0.00
2013-10-4,88,82,79,73,70,68,79,67,53,29.88,29.82,0,0,0,0.00
2013-10-5,88,82,76,74,72,69,86,73,56,29.88,29.79,0,0,0,0.00
2013-10-6,79,67,56,74,49,29,96,57,19,30.09,29.88,25,12,34,0.39
2013-10-7,78,69,60,44,34,26,56,30,16,30.12,30.00,11,7,15,0.00
2013-10-8,79,70,61,57,49,32,80,50,26,30.06,29.97,7,5,13,0.00
2013-10-9,81,75,70,49,47,43,46,38,27,30.00,29.91,10,7,18,0.00
2013-10-10,82,76,72,66,57,47,73,52,36,29.97,29.88,12,8,22,0.00
2013-10-11,84,78,75,75,71,65,89,78,68,29.88,29.79,12,9,22,0.00
2013-10-12,86,81,77,78,75,74,91,83,68,29.97,29.85,10,1,18,0.00
2013-10-13,83,79,75,77,74,72,92,85,74,30.06,29.94,0,0,0,0.16
2013-10-14,86,81,77,75,70,65,92,71,53,30.03,29.88,0,0,0,0.00
2013-10-15,86,80,78,71,68,63,78,67,49,29.94,29.82,0,0,0,0.00
2013-10-16,79,73,64,73,66,60,95,80,68,30.00,29.85,13,6,19,0.08
2013-10-17,76,67,62,60,56,51,90,68,45,30.06,29.91,16,9,21,0.00
2013-10-18,79,75,69,75,70,57,93,84,65,29.94,29.76,14,8,21,0.36
2013-10-19,76,66,61,74,53,35,95,67,28,30.09,29.85,22,13,30,1.46
2013-10-20,76,67,58,63,53,36,84,63,40,30.06,29.88,9,7,15,0.00
2013-10-21,77,74,70,71,68,60,91,81,67,29.91,29.82,9,6,15,0.16
2013-10-22,78,70,62,58,48,34,87,50,24,30.09,30.00,16,10,21,0.00
2013-10-23,78,68,60,55,40,26,78,41,16,30.15,30.06,8,6,13,0.00
2013-10-24,78,70,62,59,50,39,84,53,34,30.18,30.09,10,6,17,0.00
2013-10-25,80,73,68,61,54,48,71,51,40,30.24,30.15,12,8,20,0.00
2013-10-26,80,74,71,64,58,54,76,58,44,30.15,30.03,10,8,20,0.00
2013-10-27,81,74,68,70,66,62,92,78,54,30.06,29.94,8,5,14,0.00
2013-10-28,81,76,72,72,68,66,91,79,61,30.03,29.94,11,4,19,0.00
2013-10-29,82,78,74,74,70,68,89,79,63,30.06,29.94,11,1,19,0.00
2013-10-30,85,79,76,77,75,73,92,87,75,29.97,29.79,0,0,0,0.00
2013-10-31,85,80,77,78,76,68,91,86,70,29.85,29.74,8,2,14,0.00
2013-11-1,83,78,74,73,65,58,91,66,50,29.94,29.79,9,6,15,0.00
2013-11-2,76,68,63,72,33,23,90,29,17,30.21,29.91,22,15,30,0.00
2013-11-3,73,66,58,48,35,28,58,33,25,30.18,30.00,10,7,16,0.00
2013-11-4,73,68,64,65,54,33,85,64,28,30.03,29.94,8,4,13,0.00
2013-11-5,80,74,69,72,68,65,93,83,67,29.97,29.88,11,6,20,0.00
2013-11-6,82,72,58,74,66,48,94,84,61,30.21,29.94,23,8,30,0.24
2013-11-7,63,58,53,49,33,22,72,41,22,30.36,30.18,23,16,30,0.00
2013-11-8,67,60,54,49,43,32,67,53,40,30.30,30.12,15,10,21,0.00
2013-11-9,74,67,59,62,56,48,89,70,48,30.12,30.06,12,6,19,0.00
2013-11-10,66,64,62,64,56,45,94,76,47,30.24,30.09,12,7,20,0.00
2013-11-11,73,66,62,60,56,47,85,70,57,30.21,30.09,10,7,16,0.00
2013-11-12,70,62,53,61,50,38,93,68,35,30.50,30.15,24,16,31,0.00
2013-11-13,53,48,42,43,27,17,71,46,24,30.56,30.36,21,11,27,0.00
2013-11-14,64,56,46,56,44,26,92,65,42,30.36,30.00,10,6,16,0.00
2013-11-15,72,64,56,64,59,54,96,85,61,30.00,29.85,7,3,11,0.00
2013-11-16,76,71,66,73,68,63,95,92,85,29.88,29.76,11,6,19,0.00
2013-11-17,79,74,70,73,70,68,93,89,79,29.88,29.76,11,4,19,0.00
2013-11-18,78,73,70,75,70,61,93,90,73,30.00,29.88,13,5,21,0.00
2013-11-19,73,70,67,65,61,57,84,75,64,30.03,29.94,14,10,25,0.00
2013-11-20,82,75,70,74,70,65,92,86,72,29.94,29.82,12,7,20,0.00
2013-11-21,83,77,74,78,73,71,93,88,75,30.00,29.88,8,1,13,0.00
2013-11-22,80,61,44,77,59,44,99,94,75,30.27,29.97,24,11,30,0.08
2013-11-23,48,46,42,46,43,41,99,91,81,30.36,30.27,20,16,29,0.00
2013-11-24,50,47,44,49,41,34,98,80,60,30.36,30.24,18,14,24,0.12
2013-11-25,47,44,43,46,42,38,100,93,82,30.24,30.00,21,15,30,0.04
2013-11-26,50,46,43,44,36,29,100,70,45,30.33,30.06,27,18,36,0.04
2013-11-27,53,46,40,35,25,15,69,46,22,30.44,30.30,17,9,24,0.00
2013-11-28,58,50,43,50,35,24,91,58,29,30.39,30.30,12,7,16,0.00
2013-11-29,65,58,49,61,54,48,98,87,74,30.39,30.30,15,9,24,0.00
2013-11-30,74,66,59,64,57,52,93,74,46,30.33,30.18,10,6,16,0.00
2013-12-1,76,66,60,65,60,57,94,82,53,30.18,29.94,9,5,17,0.00
2013-12-2,73,66,60,67,62,59,97,89,71,29.94,29.71,12,6,17,0.00
2013-12-3,73,68,64,67,64,62,95,89,76,29.74,29.62,12,9,20,0.00
2013-12-4,78,70,67,73,68,65,95,92,81,29.76,29.68,11,8,19,0.00
2013-12-5,75,63,45,73,60,41,94,89,72,29.97,29.76,20,10,26,0.00
2013-12-6,47,42,37,41,34,27,91,75,54,30.33,29.97,18,15,28,0.00
2013-12-7,37,35,34,31,28,24,82,73,66,30.39,30.27,16,11,23,0.00
2013-12-8,48,42,35,45,37,31,90,83,71,30.24,30.03,11,8,16,0.00
2013-12-9,54,50,43,54,49,42,99,97,90,30.24,30.00,22,12,28,0.08
2013-12-10,48,43,38,42,27,19,93,56,32,30.44,30.24,23,12,32,0.00
2013-12-11,53,50,45,41,34,25,64,55,44,30.44,30.27,12,8,19,0.00
2013-12-12,57,50,45,36,32,24,69,51,29,30.50,30.30,16,10,21,0.00
2013-12-13,67,56,48,59,48,36,95,74,62,30.30,29.85,10,6,15,0.00
2013-12-14,69,57,45,56,42,26,92,63,20,30.30,29.85,20,11,30,0.00
2013-12-15,57,47,40,35,28,19,65,49,23,30.41,30.27,17,7,23,0.00
2013-12-16,60,51,40,49,41,30,96,73,32,30.33,30.24,6,4,10,0.00
2013-12-17,66,55,46,58,50,45,97,83,51,30.30,30.21,8,5,12,0.00
2013-12-18,69,60,51,61,52,46,96,77,46,30.27,30.06,9,5,15,0.00
2013-12-19,69,64,61,65,61,55,96,90,81,30.06,29.82,12,8,21,0.00
2013-12-20,72,66,61,69,64,60,96,93,85,29.85,29.65,15,8,25,0.00
2013-12-21,72,67,62,67,61,48,95,82,44,29.76,29.56,16,9,26,0.00
2013-12-22,71,62,48,56,44,30,84,57,23,30.27,29.76,21,12,28,0.00
2013-12-23,56,47,40,33,28,23,62,49,31,30.50,30.27,21,10,28,0.00
2013-12-24,60,52,42,46,40,30,87,65,51,30.50,30.24,10,7,17,0.00
2013-12-25,67,59,54,60,54,46,100,86,62,30.27,30.18,9,5,15,0.00
2013-12-26,55,53,50,55,50,43,100,90,68,30.33,30.24,13,10,20,0.08
2013-12-27,53,51,49,52,50,46,100,95,79,30.36,30.27,12,8,16,0.12
2013-12-28,59,51,48,49,40,27,95,68,30,30.27,30.03,8,5,11,0.00
2013-12-29,62,55,46,55,50,45,98,84,56,30.09,29.97,14,4,19,0.00
2013-12-30,56,42,39,52,36,30,92,80,63,30.36,30.06,21,13,29,0.00
2013-12-31,45,42,40,44,36,30,98,79,63,30.41,30.27,12,8,18,0.08
2014-1-1,54,49,44,54,49,44,100,99,96,30.24,30.00,8,6,12,0.00
2014-1-2,56,49,42,56,35,21,100,61,34,30.41,30.03,24,12,34,0.00